Location: Unspecified
(47.9110°N, 14.3980°E)
Time: 21:26:47
(UTC+00:00)

Cosmos 489 Rocket - Pass Details

Date: 06 August 2020
Orbit: 953 x 983 km, 74.0° (Epoch: 21 September)

Event Time Altitude Azimuth Distance (km) Brightness Sun altitude
Rises 23:16:23 0° 336° (NNW) 3,691 8.5 -25.7°
Reaches altitude 10° 23:18:56 10° 336° (NNW) 2,735 7.7 -25.7°
Maximum altitude 23:25:17 82° 250° (WSW) 987 4.4 -25.6°
Enters shadow 23:26:25 62° 176° (S) 1,086 4.4 -25.6°
